Orbital Elements at Epoch 2459000.5 (2020-May-31.0) TDB
Reference: JPL 24 (heliocentric ecliptic J2000)
Element | Value | Uncertainty (1-sigma) | Units |
e | .04370764512388675 | 4.2256e-08 | |
a | 2.990260300178898 | 1.9479e-08 | au |
q | 2.859563064150632 | 1.2707e-07 | au |
i | 11.44770203799683 | 4.215e-06 | deg |
node | 162.4934118565604 | 2.1527e-05 | deg |
peri | 36.52815207904272 | 4.8683e-05 | deg |
M | 18.10566083802036 | 4.2538e-05 | deg |
tp | 2458905.510894199464 (2020-Feb-26.01089420) | 0.00022336 | TDB |
period | 1888.69538616254 5.17 | 1.8455e-05 5.053e-08 | d yr |
n | .1906077616525816 | 1.8625e-09 | deg/d |
Q | 3.120957536207164 | 2.0331e-08 | au |
|
| | Orbit Determination Parameters
Additional Information
|